Tracking 35055 objects as of 18-Aug-2026
HD Live streaming from Space Station
objects crossing your sky now

ICEYE-X31

Track ICEYE-X31 now!
10-day predictions
ICEYE-X31 is classified as:


NORAD ID: 58288
Int'l Code: 2023-174AJ
Launch date: November 11, 2023
Source: (FIN)
Launch site: AIR FORCE WESTERN TEST RANGE (AFWTR)

Uplink (MHz):
Downlink (MHz): 2246.020
Beacon (MHz):
Mode: FM
Call sign:
Status: Inactive

Your satellite tracking list
Your tracking list is empty




NASA's NSSDC Master Catalog

Two Line Element Set (TLE):
1 58288U 23174AJ  26230.64204314  .00016919  00000-0  48235-3 0  9996
2 58288  97.3736 306.4354 0004047 105.2682 254.9010 15.36131217154339
Source of the keplerian elements: AFSPC